| time (UTC) | temp F | wind direction | speed knots | gust knots | rain 1hr in | rain 24hr in | rain mn in | humidity % | barometer mb |
| 20260901210205 | 66 | 218 | 1.7 | 7.8 | 0.00 | 0.00 | 0.00 | 74 | 1009.8 |
| 20260901203704 | 66 | 150 | 0.9 | 2.6 | 0.00 | 0.00 | 0.00 | 75 | 1010.0 |
| 20260901203204 | 66 | 130 | 1.7 | 6.1 | 0.00 | 0.00 | 0.00 | 76 | 1010.0 |
| 20260901200704 | 66 | 116 | 0.0 | 2.6 | 0.00 | 0.00 | 0.00 | 75 | 1010.0 |
| 20260901200204 | 66 | 119 | 1.7 | 6.1 | 0.00 | 0.00 | 0.00 | 75 | 1010.0 |
| 20260901193704 | 67 | 144 | 1.7 | 2.6 | 0.00 | 0.00 | 0.00 | 75 | 1010.1 |
| 20260901193205 | 66 | 168 | 2.6 | 5.2 | 0.00 | 0.00 | 0.00 | 75 | 1010.1 |
| 20260901190704 | 66 | 119 | 0.9 | 2.6 | 0.00 | 0.00 | 0.00 | 75 | 1010.2 |
| 20260901183705 | 65 | 238 | 2.6 | 7.0 | 0.00 | 0.00 | 0.00 | 76 | 1010.4 |
| 20260901183204 | 65 | 174 | 2.6 | 6.1 | 0.00 | 0.00 | 0.00 | 75 | 1010.3 |
| 20260901180704 | 65 | 195 | 1.7 | 5.2 | 0.00 | 0.00 | 0.00 | 77 | 1010.2 |
| 20260901173703 | 64 | 160 | 2.6 | 7.0 | 0.00 | 0.00 | 0.00 | 79 | 1010.1 |
| 20260901173203 | 64 | 136 | 1.7 | 6.1 | 0.00 | 0.00 | 0.00 | 79 | 1009.9 |
| 20260901170704 | 62 | 165 | 0.9 | 4.3 | 0.00 | 0.00 | 0.00 | 82 | 1010.1 |
| 20260901170204 | 62 | 162 | 1.7 | 5.2 | 0.00 | 0.00 | 0.00 | 82 | 1010.1 |
| 20260901163704 | 61 | 151 | 2.6 | 7.8 | 0.00 | 0.00 | 0.00 | 84 | 1010.3 |
| 20260901163204 | 61 | 163 | 1.7 | 8.7 | 0.00 | 0.00 | 0.00 | 84 | 1010.3 |
| 20260901160204 | 61 | 148 | 2.6 | 7.0 | 0.00 | 0.00 | 0.00 | 84 | 1010.2 |
| 20260901153704 | 60 | 178 | 0.9 | 2.6 | 0.00 | 0.00 | 0.00 | 86 | 1010.5 |
| 20260901153204 | 60 | 168 | 1.7 | 8.7 | 0.00 | 0.00 | 0.00 | 86 | 1010.4 |
| 20260901150204 | 60 | 170 | 2.6 | 5.2 | 0.00 | 0.00 | 0.00 | 86 | 1010.4 |
| 20260901143704 | 59 | 162 | 1.7 | 7.0 | 0.00 | 0.00 | 0.00 | 86 | 1010.1 |
| 20260901133704 | 59 | 236 | 1.7 | 4.3 | 0.00 | 0.00 | 0.00 | 86 | 1009.7 |
| 20260901130704 | 58 | 120 | 0.9 | 2.6 | 0.00 | 0.00 | 0.00 | 85 | 1009.7 |
| 20260901130204 | 59 | 120 | 0.9 | 4.3 | 0.00 | 0.00 | 0.00 | 85 | 1009.6 |
| 20260901123703 | 59 | 153 | 0.9 | 1.7 | 0.00 | 0.00 | 0.00 | 84 | 1009.5 |
| 20260901123204 | 60 | 153 | 0.9 | 2.6 | 0.00 | 0.00 | 0.00 | 83 | 1009.5 |
| 20260901120205 | 59 | 145 | 0.9 | 2.6 | 0.00 | 0.00 | 0.00 | 85 | 1009.2 |
| 20260901113704 | 59 | 24 | 0.0 | 0.0 | 0.00 | 0.00 | 0.00 | 85 | 1008.9 |
| 20260901113204 | 59 | 24 | 0.0 | 0.0 | 0.00 | 0.00 | 0.00 | 85 | 1009.0 |
| 20260901110204 | 59 | 24 | 0.0 | 0.0 | 0.00 | 0.00 | 0.00 | 84 | 1008.9 |
| 20260901103704 | 60 | 24 | 0.0 | 0.0 | 0.00 | 0.00 | 0.00 | 83 | 1008.9 |
| 20260901103204 | 60 | 24 | 0.0 | 0.0 | 0.00 | 0.00 | 0.00 | 84 | 1008.8 |
| 20260901100705 | 60 | 24 | 0.0 | 0.0 | 0.00 | 0.00 | 0.00 | 83 | 1008.8 |
| 20260901100204 | 60 | 24 | 0.0 | 0.0 | 0.00 | 0.00 | 0.00 | 82 | 1008.6 |
| 20260901093704 | 62 | 24 | 0.0 | 0.0 | 0.00 | 0.00 | 0.00 | 81 | 1008.5 |
| 20260901090704 | 61 | 24 | 0.0 | 0.0 | 0.00 | 0.00 | 0.00 | 81 | 1008.5 |
| 20260901090204 | 62 | 24 | 0.0 | 0.0 | 0.00 | 0.00 | 0.00 | 80 | 1008.5 |
| 20260901083703 | 63 | 24 | 0.0 | 0.0 | 0.00 | 0.00 | 0.00 | 79 | 1008.4 |
| 20260901083204 | 63 | 24 | 0.0 | 0.0 | 0.00 | 0.00 | 0.00 | 78 | 1008.4 |
| 20260901080204 | 63 | 24 | 0.0 | 2.6 | 0.00 | 0.00 | 0.00 | 77 | 1008.1 |
| 20260901073704 | 64 | 24 | 0.9 | 2.6 | 0.00 | 0.00 | 0.00 | 76 | 1008.1 |
| 20260901073204 | 64 | 26 | 0.9 | 2.6 | 0.00 | 0.00 | 0.00 | 76 | 1008.1 |
| 20260901070205 | 64 | 21 | 0.0 | 1.7 | 0.00 | 0.00 | 0.00 | 75 | 1008.1 |
| 20260901063204 | 64 | 21 | 0.0 | 2.6 | 0.00 | 0.00 | 0.00 | 74 | 1008.0 |
| 20260901060704 | 66 | 21 | 0.0 | 0.9 | 0.00 | 0.00 | 0.00 | 73 | 1008.4 |
| 20260901060204 | 66 | 21 | 0.9 | 2.6 | 0.00 | 0.00 | 0.00 | 73 | 1008.3 |
| 20260901053704 | 66 | 5 | 0.9 | 2.6 | 0.00 | 0.00 | 0.00 | 75 | 1008.4 |
| 20260901053205 | 66 | 11 | 0.9 | 4.3 | 0.00 | 0.00 | 0.00 | 74 | 1008.4 |
| 20260901050704 | 67 | 326 | 1.7 | 2.6 | 0.00 | 0.00 | 0.00 | 73 | 1008.4 |
| 20260901050204 | 66 | 351 | 0.0 | 2.6 | 0.00 | 0.00 | 0.00 | 74 | 1008.4 |
| 20260901043704 | 67 | 0 | 0.9 | 2.6 | 0.00 | 0.00 | 0.00 | 71 | 1008.5 |
| 20260901040704 | 68 | 341 | 0.9 | 2.6 | 0.00 | 0.00 | 0.00 | 70 | 1008.4 |
| 20260901040204 | 69 | 18 | 1.7 | 5.2 | 0.00 | 0.00 | 0.00 | 69 | 1008.3 |
| 20260901033204 | 69 | 326 | 1.7 | 5.2 | 0.00 | 0.00 | 0.00 | 69 | 1008.0 |
| 20260901030704 | 70 | 337 | 1.7 | 4.3 | 0.00 | 0.00 | 0.00 | 66 | 1007.8 |
| 20260901030204 | 70 | 334 | 0.9 | 6.1 | 0.00 | 0.00 | 0.00 | 65 | 1007.8 |
| 20260901023204 | 71 | 5 | 0.9 | 5.2 | 0.00 | 0.00 | 0.00 | 62 | 1007.9 |
| 20260901020703 | 72 | 335 | 1.7 | 7.0 | 0.00 | 0.00 | 0.00 | 60 | 1007.9 |
| 20260901020203 | 72 | 337 | 1.7 | 7.0 | 0.00 | 0.00 | 0.00 | 61 | 1007.9 |
| 20260901013703 | 73 | 335 | 0.9 | 4.3 | 0.00 | 0.00 | 0.00 | 59 | 1007.9 |
| 20260901013204 | 73 | 275 | 3.5 | 7.8 | 0.00 | 0.00 | 0.00 | 58 | 1007.9 |
| 20260901010703 | 75 | 325 | 1.7 | 8.7 | 0.00 | 0.00 | 0.00 | 55 | 1007.9 |
| 20260901010204 | 76 | 336 | 3.5 | 8.7 | 0.00 | 0.00 | 0.00 | 56 | 1007.9 |
| 20260901003705 | 77 | 276 | 1.7 | 5.2 | 0.00 | 0.00 | 0.00 | 51 | 1007.9 |
| 20260901000704 | 80 | 351 | 2.6 | 7.0 | 0.00 | 0.00 | 0.00 | 50 | 1008.1 |
| 20260901000204 | 79 | 315 | 2.6 | 8.7 | 0.00 | 0.00 | 0.00 | 49 | 1008.1 |
| 20260831230204 | 78 | 310 | 2.6 | 8.7 | 0.00 | 0.00 | 0.00 | 52 | 1008.7 |
| 20260831223703 | 80 | 348 | 3.5 | 10.4 | 0.00 | 0.00 | 0.00 | 49 | 1009.0 |
| 20260831220704 | 77 | 308 | 3.5 | 7.0 | 0.00 | 0.00 | 0.00 | 52 | 1009.4 |
| 20260831213704 | 76 | 269 | 3.5 | 8.7 | 0.00 | 0.00 | 0.00 | 54 | 1009.6 |
| 20260831213204 | 75 | 276 | 5.2 | 10.4 | 0.00 | 0.00 | 0.00 | 54 | 1009.7 |